Location: Heilwood
(40.6210°N, 78.9150°W)
Time: 03:15:50
(UTC-05:00)

BREEZE-M DEB (TANK) - Visible Passes

Search period start: 15 December 2017 00:00
Search period end: 25 December 2017 00:00
Orbit: 280 x 15856 km, 49.5° (Epoch: 14 December)

Date Brightness Start Highest point End Pass type
(mag) Time Alt. Az. Time Alt. Az. Time Alt. Az.
15 Dec 7.4 02:49:48 43° SSW 03:15:39 76° ESE 05:51:41 10° ENE visible
16 Dec 7.4 02:51:02 46° SSW 03:15:44 77° ESE 05:52:39 10° ENE visible
17 Dec 7.4 02:52:12 49° SSW 03:15:52 79° SE 05:53:37 10° ENE visible
18 Dec 7.5 02:53:20 52° SSW 03:16:02 80° SE 05:54:33 10° ENE visible
19 Dec 7.5 02:54:25 54° SSW 03:16:14 81° SE 05:55:29 10° ENE visible
19 Dec 8.5 22:21:48 10° ENE 22:31:31 10° ENE 22:43:05 10° ENE visible
20 Dec 7.5 02:55:27 57° SSW 03:16:29 83° SE 05:56:22 10° ENE visible
20 Dec 8.5 22:14:09 10° E 22:29:46 11° ENE 22:51:19 10° NE visible
21 Dec 7.5 02:56:26 59° SSW 03:16:47 84° SE 05:57:16 10° ENE visible
21 Dec 8.5 22:09:24 10° E 22:28:06 12° ENE 22:56:39 10° NE visible
22 Dec 7.5 02:57:22 61° SW 03:17:07 86° SE 05:58:07 10° ENE visible
22 Dec 8.5 22:10:04 11° E 22:26:28 13° ENE 23:00:47 10° NE visible
23 Dec 7.6 02:58:15 62° SW 03:17:30 87° SE 05:58:58 10° E visible
23 Dec 8.5 22:10:54 13° E 22:24:53 14° ENE 23:04:12 10° NE visible
24 Dec 7.6 02:59:04 64° SW 03:17:55 88° SE 05:59:46 10° E visible
24 Dec 8.5 22:11:41 14° E 22:23:21 15° ENE 23:07:08 10° NE visible
